Year,Month,Day,Hour,Minute,Value (Times are PST for insolation in W/m^2)
2018,09,12,00,00,0.00
2018,09,12,00,01,0.00
2018,09,12,00,02,0.00
2018,09,12,00,03,0.00
2018,09,12,00,04,0.00
2018,09,12,00,05,0.00
2018,09,12,00,06,0.00
2018,09,12,00,07,0.00
2018,09,12,00,08,0.00
2018,09,12,00,09,0.00
2018,09,12,00,10,0.00
2018,09,12,00,11,0.00
2018,09,12,00,12,0.00
2018,09,12,00,13,0.00
2018,09,12,00,14,0.00
2018,09,12,00,15,0.00
2018,09,12,00,16,0.00
2018,09,12,00,17,0.00
2018,09,12,00,18,0.00
2018,09,12,00,19,0.00
2018,09,12,00,20,0.00
2018,09,12,00,21,0.00
2018,09,12,00,22,0.00
2018,09,12,00,23,0.00
2018,09,12,00,24,0.00
2018,09,12,00,25,0.00
2018,09,12,00,26,0.00
2018,09,12,00,27,0.00
2018,09,12,00,28,0.00
2018,09,12,00,29,0.00
2018,09,12,00,30,0.00
2018,09,12,00,31,0.00
2018,09,12,00,32,0.00
2018,09,12,00,33,0.00
2018,09,12,00,34,0.00
2018,09,12,00,35,0.00
2018,09,12,00,36,0.00
2018,09,12,00,37,0.00
2018,09,12,00,38,0.00
2018,09,12,00,39,0.00
2018,09,12,00,40,0.00
2018,09,12,00,41,0.00
2018,09,12,00,42,0.00
2018,09,12,00,43,0.00
2018,09,12,00,44,0.00
2018,09,12,00,45,0.00
2018,09,12,00,46,0.00
2018,09,12,00,47,0.00
2018,09,12,00,48,0.00
2018,09,12,00,49,0.00
2018,09,12,00,50,0.00
2018,09,12,00,51,0.00
2018,09,12,00,52,0.00
2018,09,12,00,53,0.00
2018,09,12,00,54,0.00
2018,09,12,00,55,0.00
2018,09,12,00,56,0.00
2018,09,12,00,57,0.00
2018,09,12,00,58,0.00
2018,09,12,00,59,0.00
2018,09,12,01,00,0.00
2018,09,12,01,01,0.00
2018,09,12,01,02,0.00
2018,09,12,01,03,0.00
2018,09,12,01,04,0.00
2018,09,12,01,05,0.00
2018,09,12,01,06,0.00
2018,09,12,01,07,0.00
2018,09,12,01,08,0.00
2018,09,12,01,09,0.00
2018,09,12,01,10,0.00
2018,09,12,01,11,0.00
2018,09,12,01,12,0.00
2018,09,12,01,13,0.00
2018,09,12,01,14,0.00
2018,09,12,01,15,0.00
2018,09,12,01,16,0.00
2018,09,12,01,17,0.00
2018,09,12,01,18,0.00
2018,09,12,01,19,0.00
2018,09,12,01,20,0.00
2018,09,12,01,21,0.00
2018,09,12,01,22,0.00
2018,09,12,01,23,0.00
2018,09,12,01,24,0.00
2018,09,12,01,25,0.00
2018,09,12,01,26,0.00
2018,09,12,01,27,0.00
2018,09,12,01,28,0.00
2018,09,12,01,29,0.00
2018,09,12,01,30,0.00
2018,09,12,01,31,0.00
2018,09,12,01,32,0.00
2018,09,12,01,33,0.00
2018,09,12,01,34,0.00
2018,09,12,01,35,0.00
2018,09,12,01,36,0.00
2018,09,12,01,37,0.00
2018,09,12,01,38,0.00
2018,09,12,01,39,0.00
2018,09,12,01,40,0.00
2018,09,12,01,41,0.00
2018,09,12,01,42,0.00
2018,09,12,01,43,0.00
2018,09,12,01,44,0.00
2018,09,12,01,45,0.00
2018,09,12,01,46,0.00
2018,09,12,01,47,0.00
2018,09,12,01,48,0.00
2018,09,12,01,49,0.00
2018,09,12,01,50,0.00
2018,09,12,01,51,0.00
2018,09,12,01,52,0.00
2018,09,12,01,53,0.00
2018,09,12,01,54,0.00
2018,09,12,01,55,0.00
2018,09,12,01,56,0.00
2018,09,12,01,57,0.00
2018,09,12,01,58,0.00
2018,09,12,01,59,0.00
2018,09,12,02,00,0.00
2018,09,12,02,01,0.00
2018,09,12,02,02,0.00
2018,09,12,02,03,0.00
2018,09,12,02,04,0.00
2018,09,12,02,05,0.00
2018,09,12,02,06,0.00
2018,09,12,02,07,0.00
2018,09,12,02,08,0.00
2018,09,12,02,09,0.00
2018,09,12,02,10,0.00
2018,09,12,02,11,0.00
2018,09,12,02,12,0.00
2018,09,12,02,13,0.00
2018,09,12,02,14,0.00
2018,09,12,02,15,0.00
2018,09,12,02,16,0.00
2018,09,12,02,17,0.00
2018,09,12,02,18,0.00
2018,09,12,02,19,0.00
2018,09,12,02,20,0.00
2018,09,12,02,21,0.00
2018,09,12,02,22,0.00
2018,09,12,02,23,0.00
2018,09,12,02,24,0.00
2018,09,12,02,25,0.00
2018,09,12,02,26,0.00
2018,09,12,02,27,0.00
2018,09,12,02,28,0.00
2018,09,12,02,29,0.00
2018,09,12,02,30,0.00
2018,09,12,02,31,0.00
2018,09,12,02,32,0.00
2018,09,12,02,33,0.00
2018,09,12,02,34,0.00
2018,09,12,02,35,0.00
2018,09,12,02,36,0.00
2018,09,12,02,37,0.00
2018,09,12,02,38,0.00
2018,09,12,02,39,0.00
2018,09,12,02,40,0.00
2018,09,12,02,41,0.00
2018,09,12,02,42,0.00
2018,09,12,02,43,0.00
2018,09,12,02,44,0.00
2018,09,12,02,45,0.00
2018,09,12,02,46,0.00
2018,09,12,02,47,0.00
2018,09,12,02,48,0.00
2018,09,12,02,49,0.00
2018,09,12,02,50,0.00
2018,09,12,02,51,0.00
2018,09,12,02,52,0.00
2018,09,12,02,53,0.00
2018,09,12,02,54,0.00
2018,09,12,02,55,0.00
2018,09,12,02,56,0.00
2018,09,12,02,57,0.00
2018,09,12,02,58,0.00
2018,09,12,02,59,0.00
2018,09,12,03,00,0.00
2018,09,12,03,01,0.00
2018,09,12,03,02,0.00
2018,09,12,03,03,0.00
2018,09,12,03,04,0.00
2018,09,12,03,05,0.00
2018,09,12,03,06,0.00
2018,09,12,03,07,0.00
2018,09,12,03,08,0.00
2018,09,12,03,09,0.00
2018,09,12,03,10,0.00
2018,09,12,03,11,0.00
2018,09,12,03,12,0.00
2018,09,12,03,13,0.00
2018,09,12,03,14,0.00
2018,09,12,03,15,0.00
2018,09,12,03,16,0.00
2018,09,12,03,17,0.00
2018,09,12,03,18,0.00
2018,09,12,03,19,0.00
2018,09,12,03,20,0.00
2018,09,12,03,21,0.00
2018,09,12,03,22,0.00
2018,09,12,03,23,0.00
2018,09,12,03,24,0.00
2018,09,12,03,25,0.00
2018,09,12,03,26,0.00
2018,09,12,03,27,0.00
2018,09,12,03,28,0.00
2018,09,12,03,29,0.00
2018,09,12,03,30,0.00
2018,09,12,03,31,0.00
2018,09,12,03,32,0.00
2018,09,12,03,33,0.00
2018,09,12,03,34,0.00
2018,09,12,03,35,0.00
2018,09,12,03,36,0.00
2018,09,12,03,37,0.00
2018,09,12,03,38,0.00
2018,09,12,03,39,0.00
2018,09,12,03,40,0.00
2018,09,12,03,41,0.00
2018,09,12,03,42,0.00
2018,09,12,03,43,0.00
2018,09,12,03,44,0.00
2018,09,12,03,45,0.00
2018,09,12,03,46,0.00
2018,09,12,03,47,0.00
2018,09,12,03,48,0.00
2018,09,12,03,49,0.00
2018,09,12,03,50,0.00
2018,09,12,03,51,0.00
2018,09,12,03,52,0.00
2018,09,12,03,53,0.00
2018,09,12,03,54,0.00
2018,09,12,03,55,0.00
2018,09,12,03,56,0.00
2018,09,12,03,57,0.00
2018,09,12,03,58,0.00
2018,09,12,03,59,0.00
2018,09,12,04,00,0.00
2018,09,12,04,01,0.00
2018,09,12,04,02,0.00
2018,09,12,04,03,0.00
2018,09,12,04,04,0.00
2018,09,12,04,05,0.00
2018,09,12,04,06,0.00
2018,09,12,04,07,0.00
2018,09,12,04,08,0.00
2018,09,12,04,09,0.00
2018,09,12,04,10,0.00
2018,09,12,04,11,0.00
2018,09,12,04,12,0.00
2018,09,12,04,13,0.00
2018,09,12,04,14,0.00
2018,09,12,04,15,0.00
2018,09,12,04,16,0.00
2018,09,12,04,17,0.00
2018,09,12,04,18,0.00
2018,09,12,04,19,0.00
2018,09,12,04,20,0.00
2018,09,12,04,21,0.00
2018,09,12,04,22,0.00
2018,09,12,04,23,0.00
2018,09,12,04,24,0.00
2018,09,12,04,25,0.00
2018,09,12,04,26,0.00
2018,09,12,04,27,0.00
2018,09,12,04,28,0.00
2018,09,12,04,29,0.00
2018,09,12,04,30,0.00
2018,09,12,04,31,0.00
2018,09,12,04,32,0.00
2018,09,12,04,33,0.00
2018,09,12,04,34,0.00
2018,09,12,04,35,0.00
2018,09,12,04,36,0.00
2018,09,12,04,37,0.00
2018,09,12,04,38,0.00
2018,09,12,04,39,0.00
2018,09,12,04,40,0.00
2018,09,12,04,41,0.00
2018,09,12,04,42,0.00
2018,09,12,04,43,0.00
2018,09,12,04,44,0.00
2018,09,12,04,45,0.00
2018,09,12,04,46,0.00
2018,09,12,04,47,0.00
2018,09,12,04,48,0.00
2018,09,12,04,49,0.00
2018,09,12,04,50,0.00
2018,09,12,04,51,0.00
2018,09,12,04,52,0.00
2018,09,12,04,53,0.00
2018,09,12,04,54,0.00
2018,09,12,04,55,0.00
2018,09,12,04,56,0.00
2018,09,12,04,57,0.00
2018,09,12,04,58,0.00
2018,09,12,04,59,0.00
2018,09,12,05,00,0.00
2018,09,12,05,01,0.00
2018,09,12,05,02,0.00
2018,09,12,05,03,0.00
2018,09,12,05,04,0.00
2018,09,12,05,05,0.00
2018,09,12,05,06,0.00
2018,09,12,05,07,0.00
2018,09,12,05,08,0.00
2018,09,12,05,09,0.00
2018,09,12,05,10,0.00
2018,09,12,05,11,0.00
2018,09,12,05,12,0.00
2018,09,12,05,13,0.00
2018,09,12,05,14,0.00
2018,09,12,05,15,0.00
2018,09,12,05,16,0.00
2018,09,12,05,17,0.00
2018,09,12,05,18,0.00
2018,09,12,05,19,0.00
2018,09,12,05,20,0.00
2018,09,12,05,21,0.00
2018,09,12,05,22,0.00
2018,09,12,05,23,0.00
2018,09,12,05,24,0.00
2018,09,12,05,25,0.00
2018,09,12,05,26,0.00
2018,09,12,05,27,0.00
2018,09,12,05,28,0.00
2018,09,12,05,29,0.00
2018,09,12,05,30,0.00
2018,09,12,05,31,0.00
2018,09,12,05,32,0.00
2018,09,12,05,33,0.00
2018,09,12,05,34,0.00
2018,09,12,05,35,0.00
2018,09,12,05,36,0.00
2018,09,12,05,37,0.00
2018,09,12,05,38,0.00
2018,09,12,05,39,0.00
2018,09,12,05,40,0.00
2018,09,12,05,41,0.00
2018,09,12,05,42,0.00
2018,09,12,05,43,0.00
2018,09,12,05,44,0.00
2018,09,12,05,45,0.00
2018,09,12,05,46,0.00
2018,09,12,05,47,0.00
2018,09,12,05,48,0.00
2018,09,12,05,49,0.00
2018,09,12,05,50,0.00
2018,09,12,05,51,0.00
2018,09,12,05,52,0.00
2018,09,12,05,53,0.00
2018,09,12,05,54,0.00
2018,09,12,05,55,0.00
2018,09,12,05,56,0.00
2018,09,12,05,57,0.00
2018,09,12,05,58,0.00
2018,09,12,05,59,0.00
2018,09,12,06,00,0.00
2018,09,12,06,01,0.00
2018,09,12,06,02,0.00
2018,09,12,06,03,0.00
2018,09,12,06,04,0.00
2018,09,12,06,05,0.00
2018,09,12,06,06,0.00
2018,09,12,06,07,0.00
2018,09,12,06,08,0.00
2018,09,12,06,09,0.00
2018,09,12,06,10,0.00
2018,09,12,06,11,0.00
2018,09,12,06,12,0.00
2018,09,12,06,13,0.00
2018,09,12,06,14,0.00
2018,09,12,06,15,0.00
2018,09,12,06,16,0.00
2018,09,12,06,17,0.00
2018,09,12,06,18,0.00
2018,09,12,06,19,0.00
2018,09,12,06,20,0.00
2018,09,12,06,21,0.00
2018,09,12,06,22,0.00
2018,09,12,06,23,0.00
2018,09,12,06,24,0.00
2018,09,12,06,25,0.00
2018,09,12,06,26,0.00
2018,09,12,06,27,0.00
2018,09,12,06,28,0.00
2018,09,12,06,29,0.00
2018,09,12,06,30,0.00
2018,09,12,06,31,0.00
2018,09,12,06,32,0.00
2018,09,12,06,33,0.00
2018,09,12,06,34,0.00
2018,09,12,06,35,0.00
2018,09,12,06,36,0.00
2018,09,12,06,37,0.00
2018,09,12,06,38,0.00
2018,09,12,06,39,0.00
2018,09,12,06,40,0.00
2018,09,12,06,41,0.00
2018,09,12,06,42,0.00
2018,09,12,06,43,0.00
2018,09,12,06,44,0.00
2018,09,12,06,45,0.00
2018,09,12,06,46,0.00
2018,09,12,06,47,0.00
2018,09,12,06,48,0.00
2018,09,12,06,49,0.00
2018,09,12,06,50,0.00
2018,09,12,06,51,0.00
2018,09,12,06,52,0.00
2018,09,12,06,53,0.00
2018,09,12,06,54,0.00
2018,09,12,06,55,0.00
2018,09,12,06,56,0.00
2018,09,12,06,57,0.00
2018,09,12,06,58,0.00
2018,09,12,06,59,3.20
2018,09,12,07,00,5.00
2018,09,12,07,01,5.00
2018,09,12,07,02,5.50
2018,09,12,07,03,7.00
2018,09,12,07,04,8.10
2018,09,12,07,05,9.00
2018,09,12,07,06,9.00
2018,09,12,07,07,10.90
2018,09,12,07,08,11.00
2018,09,12,07,09,11.00
2018,09,12,07,10,11.60
2018,09,12,07,11,12.00
2018,09,12,07,12,12.00
2018,09,12,07,13,12.30
2018,09,12,07,14,14.00
2018,09,12,07,15,14.00
2018,09,12,07,16,14.00
2018,09,12,07,17,15.40
2018,09,12,07,18,16.00
2018,09,12,07,19,16.20
2018,09,12,07,20,18.00
2018,09,12,07,21,18.00
2018,09,12,07,22,18.60
2018,09,12,07,23,19.00
2018,09,12,07,24,19.00
2018,09,12,07,25,21.00
2018,09,12,07,26,21.00
2018,09,12,07,27,21.90
2018,09,12,07,28,23.00
2018,09,12,07,29,23.00
2018,09,12,07,30,24.80
2018,09,12,07,31,25.20
2018,09,12,07,32,26.00
2018,09,12,07,33,26.00
2018,09,12,07,34,27.30
2018,09,12,07,35,28.00
2018,09,12,07,36,29.80
2018,09,12,07,37,30.40
2018,09,12,07,38,32.00
2018,09,12,07,39,32.50
2018,09,12,07,40,33.00
2018,09,12,07,41,34.60
2018,09,12,07,42,35.00
2018,09,12,07,43,35.40
2018,09,12,07,44,37.00
2018,09,12,07,45,37.00
2018,09,12,07,46,38.40
2018,09,12,07,47,39.00
2018,09,12,07,48,40.00
2018,09,12,07,49,40.50
2018,09,12,07,50,42.00
2018,09,12,07,51,42.00
2018,09,12,07,52,43.40
2018,09,12,07,53,44.00
2018,09,12,07,54,45.90
2018,09,12,07,55,46.30
2018,09,12,07,56,47.00
2018,09,12,07,57,47.00
2018,09,12,07,58,48.30
2018,09,12,07,59,49.00
2018,09,12,08,00,51.30
2018,09,12,08,01,53.00
2018,09,12,08,02,53.50
2018,09,12,08,03,54.00
2018,09,12,08,04,54.00
2018,09,12,08,05,55.70
2018,09,12,08,06,56.30
2018,09,12,08,07,58.00
2018,09,12,08,08,58.00
2018,09,12,08,09,59.20
2018,09,12,08,10,60.00
2018,09,12,08,11,60.00
2018,09,12,08,12,62.00
2018,09,12,08,13,62.30
2018,09,12,08,14,63.00
2018,09,12,08,15,64.20
2018,09,12,08,16,66.60
2018,09,12,08,17,68.90
2018,09,12,08,18,70.00
2018,09,12,08,19,70.60
2018,09,12,08,20,74.00
2018,09,12,08,21,76.60
2018,09,12,08,22,78.60
2018,09,12,08,23,78.80
2018,09,12,08,24,76.80
2018,09,12,08,25,75.20
2018,09,12,08,26,72.90
2018,09,12,08,27,70.10
2018,09,12,08,28,67.40
2018,09,12,08,29,65.30
2018,09,12,08,30,67.50
2018,09,12,08,31,69.00
2018,09,12,08,32,69.60
2018,09,12,08,33,72.80
2018,09,12,08,34,75.70
2018,09,12,08,35,79.10
2018,09,12,08,36,81.50
2018,09,12,08,37,83.40
2018,09,12,08,38,86.20
2018,09,12,08,39,91.50
2018,09,12,08,40,116.10
2018,09,12,08,41,104.00
2018,09,12,08,42,92.10
2018,09,12,08,43,90.40
2018,09,12,08,44,91.00
2018,09,12,08,45,92.40
2018,09,12,08,46,96.50
2018,09,12,08,47,105.60
2018,09,12,08,48,127.00
2018,09,12,08,49,145.40
2018,09,12,08,50,138.60
2018,09,12,08,51,133.10
2018,09,12,08,52,130.10
2018,09,12,08,53,127.60
2018,09,12,08,54,133.10
2018,09,12,08,55,145.70
2018,09,12,08,56,165.40
2018,09,12,08,57,181.90
2018,09,12,08,58,184.80
2018,09,12,08,59,180.60
2018,09,12,09,00,178.00
2018,09,12,09,01,182.00
2018,09,12,09,02,188.00
2018,09,12,09,03,182.50
2018,09,12,09,04,180.50
2018,09,12,09,05,212.00
2018,09,12,09,06,243.90
2018,09,12,09,07,267.00
2018,09,12,09,08,303.50
2018,09,12,09,09,338.20
2018,09,12,09,10,370.20
2018,09,12,09,11,349.50
2018,09,12,09,12,339.20
2018,09,12,09,13,330.00
2018,09,12,09,14,316.70
2018,09,12,09,15,294.20
2018,09,12,09,16,260.20
2018,09,12,09,17,247.00
2018,09,12,09,18,246.60
2018,09,12,09,19,250.00
2018,09,12,09,20,243.70
2018,09,12,09,21,241.00
2018,09,12,09,22,245.80
2018,09,12,09,23,258.00
2018,09,12,09,24,255.90
2018,09,12,09,25,253.00
2018,09,12,09,26,251.60
2018,09,12,09,27,248.30
2018,09,12,09,28,244.40
2018,09,12,09,29,228.20
2018,09,12,09,30,207.60
2018,09,12,09,31,194.70
2018,09,12,09,32,190.50
2018,09,12,09,33,186.40
2018,09,12,09,34,182.60
2018,09,12,09,35,181.60
2018,09,12,09,36,184.40
2018,09,12,09,37,189.90
2018,09,12,09,38,194.20
2018,09,12,09,39,195.00
2018,09,12,09,40,194.00
2018,09,12,09,41,190.00
2018,09,12,09,42,175.70
2018,09,12,09,43,147.00
2018,09,12,09,44,130.50
2018,09,12,09,45,125.20
2018,09,12,09,46,125.00
2018,09,12,09,47,124.30
2018,09,12,09,48,120.40
2018,09,12,09,49,113.40
2018,09,12,09,50,106.20
2018,09,12,09,51,104.00
2018,09,12,09,52,104.70
2018,09,12,09,53,108.50
2018,09,12,09,54,112.60
2018,09,12,09,55,113.30
2018,09,12,09,56,109.80
2018,09,12,09,57,104.80
2018,09,12,09,58,101.00
2018,09,12,09,59,98.00
2018,09,12,10,00,97.40
2018,09,12,10,01,97.00
2018,09,12,10,02,95.30
2018,09,12,10,03,93.00
2018,09,12,10,04,93.00
2018,09,12,10,05,93.90
2018,09,12,10,06,96.20
2018,09,12,10,07,99.10
2018,09,12,10,08,104.30
2018,09,12,10,09,114.10
2018,09,12,10,10,122.10
2018,09,12,10,11,130.40
2018,09,12,10,12,139.20
2018,09,12,10,13,148.80
2018,09,12,10,14,157.70
2018,09,12,10,15,173.20
2018,09,12,10,16,183.90
2018,09,12,10,17,199.10
2018,09,12,10,18,207.00
2018,09,12,10,19,214.20
2018,09,12,10,20,226.70
2018,09,12,10,21,245.00
2018,09,12,10,22,274.60
2018,09,12,10,23,312.00
2018,09,12,10,24,358.10
2018,09,12,10,25,376.00
2018,09,12,10,26,557.80
2018,09,12,10,27,641.00
2018,09,12,10,28,646.90
2018,09,12,10,29,606.70
2018,09,12,10,30,569.10
2018,09,12,10,31,535.20
2018,09,12,10,32,527.90
2018,09,12,10,33,468.10
2018,09,12,10,34,433.90
2018,09,12,10,35,422.40
2018,09,12,10,36,428.40
2018,09,12,10,37,438.70
2018,09,12,10,38,427.80
2018,09,12,10,39,418.60
2018,09,12,10,40,414.10
2018,09,12,10,41,413.00
2018,09,12,10,42,411.60
2018,09,12,10,43,416.20
2018,09,12,10,44,411.90
2018,09,12,10,45,418.00
2018,09,12,10,46,425.00
2018,09,12,10,47,434.00
2018,09,12,10,48,437.40
2018,09,12,10,49,442.50
2018,09,12,10,50,411.80
2018,09,12,10,51,402.30
2018,09,12,10,52,387.00
2018,09,12,10,53,372.60
2018,09,12,10,54,362.70
2018,09,12,10,55,365.30
2018,09,12,10,56,368.30
2018,09,12,10,57,375.30
2018,09,12,10,58,379.00
2018,09,12,10,59,382.00
2018,09,12,11,00,386.10
2018,09,12,11,01,409.90
2018,09,12,11,02,425.30
2018,09,12,11,03,394.00
2018,09,12,11,04,404.30
2018,09,12,11,05,382.50
2018,09,12,11,06,450.90
2018,09,12,11,07,450.60
2018,09,12,11,08,433.20
2018,09,12,11,09,412.80
2018,09,12,11,10,444.10
2018,09,12,11,11,465.30
2018,09,12,11,12,464.00
2018,09,12,11,13,478.50
2018,09,12,11,14,515.20
2018,09,12,11,15,547.20
2018,09,12,11,16,643.30
2018,09,12,11,17,689.80
2018,09,12,11,18,671.30
2018,09,12,11,19,624.60
2018,09,12,11,20,628.00
2018,09,12,11,21,558.70
2018,09,12,11,22,446.00
2018,09,12,11,23,450.20
2018,09,12,11,24,440.10
2018,09,12,11,25,401.40
2018,09,12,11,26,385.00
2018,09,12,11,27,425.10
2018,09,12,11,28,438.60
2018,09,12,11,29,468.00
2018,09,12,11,30,439.80
2018,09,12,11,31,410.10
2018,09,12,11,32,426.10
2018,09,12,11,33,505.40
2018,09,12,11,34,591.10
2018,09,12,11,35,554.00
2018,09,12,11,36,470.00
2018,09,12,11,37,439.70
2018,09,12,11,38,443.00
2018,09,12,11,39,443.00
2018,09,12,11,40,443.00
2018,09,12,11,41,491.00
2018,09,12,11,42,459.50
2018,09,12,11,43,468.70
2018,09,12,11,44,477.90
2018,09,12,11,45,488.20
2018,09,12,11,46,473.40
2018,09,12,11,47,473.00
2018,09,12,11,48,545.30
2018,09,12,11,49,630.90
2018,09,12,11,50,663.00
2018,09,12,11,51,628.50
2018,09,12,11,52,585.60
2018,09,12,11,53,505.10
2018,09,12,11,54,459.50
2018,09,12,11,55,470.50
2018,09,12,11,56,494.00
2018,09,12,11,57,532.50
2018,09,12,11,58,571.00
2018,09,12,11,59,419.00
2018,09,12,12,00,382.60
2018,09,12,12,01,394.90
2018,09,12,12,02,397.00
2018,09,12,12,03,397.00
2018,09,12,12,04,497.20
2018,09,12,12,05,536.80
2018,09,12,12,06,618.60
2018,09,12,12,07,597.40
2018,09,12,12,08,596.00
2018,09,12,12,09,661.40
2018,09,12,12,10,705.00
2018,09,12,12,11,565.50
2018,09,12,12,12,529.20
2018,09,12,12,13,570.70
2018,09,12,12,14,624.30
2018,09,12,12,15,616.50
2018,09,12,12,16,621.00
2018,09,12,12,17,641.20
2018,09,12,12,18,1107.00
2018,09,12,12,19,1107.00
2018,09,12,12,20,882.20
2018,09,12,12,21,635.00
2018,09,12,12,22,515.40
2018,09,12,12,23,508.50
2018,09,12,12,24,440.70
2018,09,12,12,25,517.70
2018,09,12,12,26,464.30
2018,09,12,12,27,413.80
2018,09,12,12,28,397.50
2018,09,12,12,29,382.20
2018,09,12,12,30,379.80
2018,09,12,12,31,364.20
2018,09,12,12,32,357.00
2018,09,12,12,33,371.10
2018,09,12,12,34,374.80
2018,09,12,12,35,387.30
2018,09,12,12,36,425.00
2018,09,12,12,37,526.90
2018,09,12,12,38,477.90
2018,09,12,12,39,397.10
2018,09,12,12,40,369.90
2018,09,12,12,41,406.00
2018,09,12,12,42,408.00
2018,09,12,12,43,408.00
2018,09,12,12,44,672.50
2018,09,12,12,45,889.00
2018,09,12,12,46,791.00
2018,09,12,12,47,756.30
2018,09,12,12,48,657.00
2018,09,12,12,49,771.30
2018,09,12,12,50,912.70
2018,09,12,12,51,896.50
2018,09,12,12,52,856.40
2018,09,12,12,53,769.40
2018,09,12,12,54,730.30
2018,09,12,12,55,772.70
2018,09,12,12,56,823.60
2018,09,12,12,57,830.20
2018,09,12,12,58,820.60
2018,09,12,12,59,705.00
2018,09,12,13,00,737.30
2018,09,12,13,01,782.50
2018,09,12,13,02,793.80
2018,09,12,13,03,793.00
2018,09,12,13,04,789.20
2018,09,12,13,05,785.60
2018,09,12,13,06,783.30
2018,09,12,13,07,785.30
2018,09,12,13,08,787.00
2018,09,12,13,09,781.40
2018,09,12,13,10,783.40
2018,09,12,13,11,779.80
2018,09,12,13,12,779.00
2018,09,12,13,13,783.70
2018,09,12,13,14,796.20
2018,09,12,13,15,813.20
2018,09,12,13,16,823.60
2018,09,12,13,17,758.80
2018,09,12,13,18,563.00
2018,09,12,13,19,563.00
2018,09,12,13,20,563.00
2018,09,12,13,21,716.30
2018,09,12,13,22,753.40
2018,09,12,13,23,772.30
2018,09,12,13,24,785.50
2018,09,12,13,25,811.80
2018,09,12,13,26,788.50
2018,09,12,13,27,778.10
2018,09,12,13,28,844.50
2018,09,12,13,29,850.00
2018,09,12,13,30,862.30
2018,09,12,13,31,877.10
2018,09,12,13,32,884.00
2018,09,12,13,33,530.00
2018,09,12,13,34,471.00
2018,09,12,13,35,568.20
2018,09,12,13,36,786.50
2018,09,12,13,37,813.00
2018,09,12,13,38,791.20
2018,09,12,13,39,765.00
2018,09,12,13,40,564.00
2018,09,12,13,41,564.00
2018,09,12,13,42,564.00
2018,09,12,13,43,564.00
2018,09,12,13,44,564.00
2018,09,12,13,45,555.90
2018,09,12,13,46,555.00
2018,09,12,13,47,574.10
2018,09,12,13,48,610.00
2018,09,12,13,49,610.00
2018,09,12,13,50,753.20
2018,09,12,13,51,833.20
2018,09,12,13,52,911.00
2018,09,12,13,53,896.00
2018,09,12,13,54,896.00
2018,09,12,13,55,896.00
2018,09,12,13,56,896.00
2018,09,12,13,57,896.00
2018,09,12,13,58,843.00
2018,09,12,13,59,688.40
2018,09,12,14,00,696.00
2018,09,12,14,01,762.00
2018,09,12,14,02,767.80
2018,09,12,14,03,744.70
2018,09,12,14,04,731.20
2018,09,12,14,05,723.10
2018,09,12,14,06,715.00
2018,09,12,14,07,710.60
2018,09,12,14,08,710.00
2018,09,12,14,09,711.30
2018,09,12,14,10,707.00
2018,09,12,14,11,707.00
2018,09,12,14,12,707.00
2018,09,12,14,13,702.70
2018,09,12,14,14,700.10
2018,09,12,14,15,700.00
2018,09,12,14,16,700.00
2018,09,12,14,17,700.40
2018,09,12,14,18,701.00
2018,09,12,14,19,702.50
2018,09,12,14,20,702.90
2018,09,12,14,21,701.00
2018,09,12,14,22,700.10
2018,09,12,14,23,698.90
2018,09,12,14,24,697.50
2018,09,12,14,25,693.70
2018,09,12,14,26,693.00
2018,09,12,14,27,693.00
2018,09,12,14,28,693.30
2018,09,12,14,29,684.00
2018,09,12,14,30,677.30
2018,09,12,14,31,685.20
2018,09,12,14,32,684.50
2018,09,12,14,33,684.70
2018,09,12,14,34,679.60
2018,09,12,14,35,679.50
2018,09,12,14,36,675.40
2018,09,12,14,37,669.00
2018,09,12,14,38,668.50
2018,09,12,14,39,672.20
2018,09,12,14,40,668.50
2018,09,12,14,41,662.30
2018,09,12,14,42,652.30
2018,09,12,14,43,573.00
2018,09,12,14,44,635.40
2018,09,12,14,45,664.00
2018,09,12,14,46,662.80
2018,09,12,14,47,662.00
2018,09,12,14,48,660.10
2018,09,12,14,49,644.30
2018,09,12,14,50,642.00
2018,09,12,14,51,645.10
2018,09,12,14,52,655.30
2018,09,12,14,53,645.60
2018,09,12,14,54,638.00
2018,09,12,14,55,642.30
2018,09,12,14,56,636.70
2018,09,12,14,57,639.40
2018,09,12,14,58,637.10
2018,09,12,14,59,636.00
2018,09,12,15,00,637.50
2018,09,12,15,01,638.00
2018,09,12,15,02,635.50
2018,09,12,15,03,631.80
2018,09,12,15,04,630.00
2018,09,12,15,05,629.70
2018,09,12,15,06,626.80
2018,09,12,15,07,628.70
2018,09,12,15,08,625.20
2018,09,12,15,09,621.70
2018,09,12,15,10,621.00
2018,09,12,15,11,621.70
2018,09,12,15,12,619.70
2018,09,12,15,13,618.90
2018,09,12,15,14,617.00
2018,09,12,15,15,616.20
2018,09,12,15,16,613.90
2018,09,12,15,17,612.30
2018,09,12,15,18,608.70
2018,09,12,15,19,606.10
2018,09,12,15,20,606.50
2018,09,12,15,21,607.20
2018,09,12,15,22,605.50
2018,09,12,15,23,603.70
2018,09,12,15,24,599.70
2018,09,12,15,25,597.90
2018,09,12,15,26,596.00
2018,09,12,15,27,595.20
2018,09,12,15,28,594.00
2018,09,12,15,29,595.40
2018,09,12,15,30,596.00
2018,09,12,15,31,595.70
2018,09,12,15,32,593.50
2018,09,12,15,33,590.80
2018,09,12,15,34,587.80
2018,09,12,15,35,583.30
2018,09,12,15,36,583.70
2018,09,12,15,37,581.30
2018,09,12,15,38,577.70
2018,09,12,15,39,575.20
2018,09,12,15,40,570.10
2018,09,12,15,41,568.00
2018,09,12,15,42,567.90
2018,09,12,15,43,566.00
2018,09,12,15,44,564.30
2018,09,12,15,45,560.00
2018,09,12,15,46,557.80
2018,09,12,15,47,557.00
2018,09,12,15,48,554.30
2018,09,12,15,49,553.60
2018,09,12,15,50,550.60
2018,09,12,15,51,547.50
2018,09,12,15,52,545.70
2018,09,12,15,53,541.90
2018,09,12,15,54,540.20
2018,09,12,15,55,539.90
2018,09,12,15,56,535.00
2018,09,12,15,57,532.00
2018,09,12,15,58,528.40
2018,09,12,15,59,526.20
2018,09,12,16,00,525.70
2018,09,12,16,01,522.00
2018,09,12,16,02,520.80
2018,09,12,16,03,517.90
2018,09,12,16,04,514.50
2018,09,12,16,05,513.00
2018,09,12,16,06,512.00
2018,09,12,16,07,511.40
2018,09,12,16,08,509.20
2018,09,12,16,09,506.90
2018,09,12,16,10,503.80
2018,09,12,16,11,501.30
2018,09,12,16,12,498.70
2018,09,12,16,13,496.70
2018,09,12,16,14,495.10
2018,09,12,16,15,492.90
2018,09,12,16,16,490.60
2018,09,12,16,17,489.10
2018,09,12,16,18,486.70
2018,09,12,16,19,484.30
2018,09,12,16,20,482.60
2018,09,12,16,21,480.80
2018,09,12,16,22,478.60
2018,09,12,16,23,477.80
2018,09,12,16,24,473.00
2018,09,12,16,25,471.60
2018,09,12,16,26,469.00
2018,09,12,16,27,468.40
2018,09,12,16,28,468.00
2018,09,12,16,29,466.10
2018,09,12,16,30,463.60
2018,09,12,16,31,461.00
2018,09,12,16,32,458.00
2018,09,12,16,33,455.10
2018,09,12,16,34,452.50
2018,09,12,16,35,449.70
2018,09,12,16,36,446.00
2018,09,12,16,37,444.90
2018,09,12,16,38,443.00
2018,09,12,16,39,441.60
2018,09,12,16,40,439.40
2018,09,12,16,41,436.00
2018,09,12,16,42,434.00
2018,09,12,16,43,432.80
2018,09,12,16,44,428.90
2018,09,12,16,45,424.90
2018,09,12,16,46,422.30
2018,09,12,16,47,417.50
2018,09,12,16,48,413.00
2018,09,12,16,49,411.80
2018,09,12,16,50,407.80
2018,09,12,16,51,403.80
2018,09,12,16,52,401.30
2018,09,12,16,53,398.30
2018,09,12,16,54,392.80
2018,09,12,16,55,390.00
2018,09,12,16,56,388.80
2018,09,12,16,57,385.90
2018,09,12,16,58,383.30
2018,09,12,16,59,379.70
2018,09,12,17,00,376.80
2018,09,12,17,01,374.00
2018,09,12,17,02,365.40
2018,09,12,17,03,359.00
2018,09,12,17,04,346.30
2018,09,12,17,05,105.00
2018,09,12,17,06,105.00
2018,09,12,17,07,221.60
2018,09,12,17,08,361.50
2018,09,12,17,09,357.80
2018,09,12,17,10,355.00
2018,09,12,17,11,349.30
2018,09,12,17,12,315.70
2018,09,12,17,13,269.00
2018,09,12,17,14,130.10
2018,09,12,17,15,71.70